Date String (YYYY-MM-DD hh:mm:ss) UTC,Instrument flags,Ambient pressure (hPa),Sample flow (lpm),Bypass flow (lpm),Sample temperature (°C),Ambient temperature (°C),ASC tube jacket temperature (°C),LED temperature (°C),Box temperature (°C),Sample RH (%),Span deviation,Mass concentration (μg/m³),Mass concentration (μg/m³),Mass concentration (μg/m³)
DateTimeUTC,F1_M11,P_M11,Q1_M11,Q2_M11,T1_M11,T2_M11,T3_M11,T4_M11,T5_M11,U1_M11,ZSPAN_M11,X0_M11,X2_M11,X1_M11
2023-02-05 13:00:00,,0824.6,4.98,0.00,22.0,20.3,00.0,31.0,23.7,12.1,0000.0,0011.99,0007.51,0007.10
2023-02-05 13:01:00,,0824.5,5.01,0.00,22.0,20.5,00.0,30.9,23.8,12.1,0000.0,0012.18,0007.55,0007.11
2023-02-05 13:02:00,,0824.5,4.98,0.00,22.1,21.5,00.0,30.9,24.0,12.0,0000.0,0012.44,0007.61,0007.12
2023-02-05 13:03:00,,0824.7,5.04,0.00,22.2,22.5,00.0,30.9,24.2,11.9,0000.0,0012.47,0007.61,0007.11
2023-02-05 13:04:00,,0824.5,4.96,0.00,22.3,22.5,00.0,31.0,24.3,11.9,0000.0,0012.44,0007.58,0007.08
2023-02-05 13:05:00,,0824.9,5.05,0.00,22.3,22.1,00.0,31.0,24.2,11.9,0000.0,0012.39,0007.55,0007.06
2023-02-05 13:06:00,,0824.7,4.97,0.00,22.3,21.7,00.0,31.0,24.2,11.9,0000.0,0012.27,0007.54,0007.06
2023-02-05 13:07:00,,0824.7,5.03,0.00,22.3,21.4,00.0,31.1,24.1,11.9,0000.0,0012.04,0007.60,0007.09
2023-02-05 13:08:00,,0824.7,4.98,0.00,22.3,21.1,00.0,31.1,24.0,11.9,0000.0,0011.78,0007.64,0007.12
2023-02-05 13:09:00,,0824.6,5.03,0.00,22.2,20.7,00.0,31.1,23.9,12.0,0000.0,0011.34,0007.66,0007.15
2023-02-05 13:10:00,,0824.6,4.97,0.00,22.2,20.5,00.0,31.1,23.9,12.0,0000.0,0011.34,0007.68,0007.15
2023-02-05 13:11:00,,0824.5,5.04,0.00,22.1,20.4,00.0,31.1,23.8,12.0,0000.0,0011.29,0007.65,0007.13
2023-02-05 13:12:00,,0824.6,4.95,0.00,22.1,20.4,00.0,31.1,23.8,12.0,0000.0,0011.18,0007.66,0007.12
2023-02-05 13:13:00,,0824.6,5.05,0.00,22.1,20.4,00.0,31.0,23.8,12.0,0000.0,0011.18,0007.61,0007.11
2023-02-05 13:14:00,,0824.7,4.96,0.00,22.1,20.3,00.0,31.0,23.8,12.1,0000.0,0011.62,0007.62,0007.12
2023-02-05 13:15:00,,0824.7,5.03,0.00,22.0,20.2,00.0,31.0,23.7,12.2,0000.0,0012.20,0007.61,0007.13
2023-02-05 13:16:00,,0824.6,4.98,0.00,22.0,20.1,00.0,31.0,23.7,12.2,0000.0,0012.20,0007.60,0007.10
2023-02-05 13:17:00,,0824.6,4.99,0.00,22.0,20.1,00.0,31.0,23.6,12.2,0000.0,0012.33,0007.52,0007.04
2023-02-05 13:18:00,,0824.6,5.04,0.00,21.9,20.1,00.0,31.0,23.6,12.2,0000.0,0012.40,0007.43,0006.95
2023-02-05 13:19:00,,0824.6,4.96,0.00,21.9,20.1,00.0,30.9,23.6,12.2,0000.0,0012.15,0007.35,0006.87
2023-02-05 13:20:00,,0824.8,5.05,0.00,21.9,20.2,00.0,30.9,23.6,12.2,0000.0,0012.06,0007.28,0006.79
2023-02-05 13:21:00,,0824.6,4.96,0.00,21.9,20.4,00.0,30.9,23.6,12.2,0000.0,0012.02,0007.22,0006.72
2023-02-05 13:22:00,,0824.7,5.03,0.00,21.9,20.5,00.0,30.9,23.7,12.1,0000.0,0011.90,0007.13,0006.65
2023-02-05 13:23:00,,0824.6,4.96,0.00,21.9,20.6,00.0,30.9,23.7,12.1,0000.0,0011.77,0007.03,0006.56
2023-02-05 13:24:00,,0824.7,5.02,0.00,22.0,20.6,00.0,30.9,23.7,12.1,0000.0,0011.75,0006.96,0006.50
2023-02-05 13:25:00,,0824.6,4.97,0.00,22.0,20.6,00.0,30.9,23.8,12.1,0000.0,0011.78,0006.90,0006.43
2023-02-05 13:26:00,,0824.6,5.02,0.00,22.0,20.6,00.0,30.9,23.8,12.0,0000.0,0011.09,0006.87,0006.39
2023-02-05 13:27:00,,0824.9,5.00,0.00,22.0,20.6,00.0,30.9,23.8,12.0,0000.0,0011.03,0006.85,0006.37
2023-02-05 13:28:00,,0824.6,4.99,0.00,22.0,20.6,00.0,30.8,23.8,12.1,0000.0,0011.12,0006.86,0006.39
2023-02-05 13:29:00,,0824.6,5.03,0.00,22.0,20.6,00.0,30.9,23.8,12.1,0000.0,0011.10,0006.86,0006.41
2023-02-05 13:30:00,,0824.4,4.97,0.00,22.0,21.0,00.0,30.8,23.9,12.0,0000.0,0011.11,0006.85,0006.40
2023-02-05 13:31:00,,0824.6,5.00,0.00,22.1,21.9,00.0,30.8,24.1,12.0,0000.0,0011.17,0006.89,0006.43
2023-02-05 13:32:00,,0824.6,4.98,0.00,22.2,22.7,00.0,30.8,24.3,11.9,0000.0,0011.28,0006.93,0006.45
2023-02-05 13:33:00,,0824.4,5.04,0.00,22.3,22.5,00.0,30.9,24.3,11.8,0000.0,0011.32,0006.95,0006.47
2023-02-05 13:34:00,,0824.4,4.98,0.00,22.3,22.0,00.0,31.0,24.2,11.8,0000.0,0011.35,0006.99,0006.50
2023-02-05 13:35:00,,0824.4,4.97,0.00,22.3,21.5,00.0,31.0,24.2,11.8,0000.0,0011.18,0007.01,0006.52
2023-02-05 13:36:00,,0824.6,5.04,0.00,22.3,21.2,00.0,31.0,24.1,11.8,0000.0,0010.61,0007.02,0006.54
2023-02-05 13:37:00,,0824.5,4.96,0.00,22.3,21.0,00.0,31.0,24.0,11.8,0000.0,0010.62,0007.02,0006.55
2023-02-05 13:38:00,,0824.7,5.02,0.00,22.2,20.9,00.0,31.0,24.0,11.9,0000.0,0010.61,0007.01,0006.55
2023-02-05 13:39:00,,0824.6,5.00,0.00,22.2,20.9,00.0,31.0,24.1,11.9,0000.0,0010.30,0007.00,0006.54
2023-02-05 13:40:00,,0824.6,4.99,0.00,22.2,20.8,00.0,31.0,24.0,11.8,0000.0,0010.14,0007.02,0006.55
2023-02-05 13:41:00,,0824.6,5.03,0.00,22.2,20.7,00.0,31.0,24.0,11.8,0000.0,0010.22,0007.04,0006.56
2023-02-05 13:42:00,,0824.8,4.96,0.00,22.2,20.6,00.0,31.0,24.0,11.9,0000.0,0010.16,0006.99,0006.54
2023-02-05 13:43:00,,0824.8,5.04,0.00,22.2,20.7,00.0,31.0,23.9,12.2,0000.0,0010.03,0006.94,0006.52
2023-02-05 13:44:00,,0824.7,4.96,0.00,22.2,20.7,00.0,31.0,23.9,12.0,0000.0,0010.08,0006.94,0006.49
2023-02-05 13:45:00,,0824.6,5.04,0.00,22.2,20.7,00.0,31.0,23.9,11.8,0000.0,0010.09,0006.92,0006.47
2023-02-05 13:46:00,,0824.6,4.96,0.00,22.1,20.6,00.0,31.0,23.9,11.8,0000.0,0010.06,0006.91,0006.47
2023-02-05 13:47:00,,0824.6,5.04,0.00,22.1,20.4,00.0,31.0,23.8,11.8,0000.0,0010.11,0006.96,0006.51
2023-02-05 13:48:00,,0824.6,5.02,0.00,22.1,20.3,00.0,31.0,23.7,11.9,0000.0,0010.19,0007.01,0006.57
2023-02-05 13:49:00,,0824.7,4.96,0.00,22.0,20.3,00.0,31.0,23.7,11.9,0000.0,0010.25,0007.08,0006.64
2023-02-05 13:50:00,,0824.8,5.03,0.00,22.0,20.3,00.0,31.0,23.8,11.9,0000.0,0010.44,0007.18,0006.73
2023-02-05 13:51:00,,0824.8,4.99,0.00,22.0,20.3,00.0,31.0,23.8,12.0,0000.0,0010.46,0007.23,0006.80
2023-02-05 13:52:00,,0824.8,4.98,0.00,22.0,20.3,00.0,31.0,23.7,12.0,0000.0,0010.51,0007.29,0006.86
2023-02-05 13:53:00,,0824.6,5.02,0.00,22.0,20.2,00.0,30.9,23.6,11.9,0000.0,0010.59,0007.39,0006.94
2023-02-05 13:54:00,,0824.5,4.97,0.00,21.9,20.2,00.0,30.9,23.6,11.9,0000.0,0011.08,0007.51,0007.03
2023-02-05 13:55:00,,0824.4,4.99,0.00,21.9,20.2,00.0,30.9,23.6,12.0,0000.0,0011.14,0007.57,0007.12
2023-02-05 13:56:00,,0824.5,5.03,0.00,22.0,21.1,00.0,30.9,23.8,12.0,0000.0,0011.18,0007.64,0007.20
2023-02-05 13:57:00,,0824.7,4.98,0.00,22.1,22.1,00.0,30.8,24.0,12.0,0000.0,0011.38,0007.75,0007.29
2023-02-05 13:58:00,,0824.7,4.99,0.00,22.2,22.5,00.0,30.9,24.2,11.9,0000.0,0011.42,0007.76,0007.29
2023-02-05 13:59:00,,0824.6,4.98,0.00,22.2,22.1,00.0,30.9,24.2,11.9,0000.0,0011.56,0007.81,0007.28
